Volver al catálogo

STARLINK-36826

ActivoComunicacionesSSO
NORAD 67885·PAYLOAD·🇺🇸 United States

Lanzado Feb 21, 2026 desde Vandenberg Space Force Base

Loading…

Próximos Pases (próximas 24 horas)

TLE

ActualizadoSource: CelesTrak SupGP

Época: Sep 14, 2026, 21:32 UTC

1 67885C 26035G   26257.89770833 -.00065206  00000+0 -20245-2 0  2579
2 67885  97.2847 189.7856 0001722  91.9775 202.2989 15.33466925    14

Sigue STARLINK-36826 en tiempo real con AllMySat

Download on the App Store